Regional Weather Roundup
Issued by NWS

Home | Current Version | Previous Version | Text Only | Print | Product List | Glossary On
Versions: 1 2 3 4 5 6 7 8 9 10 11 12 13 14 15 16 17 18 19 20 21 22 23 24 25 26 27 28 29 30 31 32 33 34 35 36 37 38 39 40 41 42 43 44 45 46 47 48 49 50
000
ASUS43 KDTX 250410
RWRMI
MICHIGAN HOURLY REGIONAL WEATHER ROUNDUP
NATIONAL WEATHER SERVICE DETROIT/PONTIAC MI
1200 AM EDT MON MAY 25 2015

NOTE: "FAIR" INDICATES FEW OR NO CLOUDS BELOW 12,000 FEET WITH NO
SIGNIFICANT WEATHER AND/OR OBSTRUCTION TO VISIBILITY.

MIZ047>049-052>055-059>063-066>070-074>076-081>083-250500-
SOUTHEAST LOWER MICHIGAN

CITY           SKY/WX    TMP DP  RH WIND       PRES   REMARKS
ADRIAN         PTCLDY    64  53  67 CALM      30.07F
ALMA           CLOUDY    63  57  80 E10       30.03F
ANN ARBOR      MOCLDY    66  51  58 SE5       30.07F
BAD AXE        LGT RAIN  61  55  80 E5        30.10F
CARO           DRIZZLE   61  57  86 E5        30.07F
DETROIT CITY   CLOUDY    68  47  46 SE9       30.07F
DETROIT        MOCLDY    70  50  49 SE9       30.08F
FLINT          CLOUDY    69  50  50 S7        30.05F
GROSSE ILE     PTCLDY    66  55  68 SE9       30.06F
HILLSDALE      MOCLDY    71  52  50 S7        30.06F
HOWELL         CLOUDY    70  47  44 SE12      30.05F

CITY           SKY/WX    TMP DP  RH WIND       PRES   REMARKS
JACKSON        CLOUDY    65  51  60 SE8       30.05F
LAMBERTVILLE   CLEAR     61  55  82 CALM      30.08S
LANSING        CLOUDY    68  51  54 SE8       30.03F
LAPEER         FAIR      66  50  57 SE5       30.07F
MASON          CLOUDY    66  50  56 SE6       30.04F
MONROE         PTCLDY    64  57  77 SE3       30.06F
MT. CLEMENS    CLOUDY    64  51  61 SE9       30.06F
PONTIAC        CLOUDY    68  47  46 SE6       30.06F
PORT HOPE        N/A     58  54  86 E3        30.10S
PORT HURON     CLOUDY    66  48  52 SE6       30.09F
TRI CITIES     LGT RAIN  63  57  81 E10       30.06F
MIDLAND        LGT RAIN  60  57  89 E8        30.04F
TROY           CLOUDY    72  47  41 SE6       30.09F
SAGINAW HB     DRIZZLE   61  61 100 NE6       30.04F
$$
MIZ043>046-050>051-056>058-064>065-071>073-077>080-250500-
SOUTHWEST LOWER MICHIGAN

CITY           SKY/WX    TMP DP  RH WIND       PRES   REMARKS
BATTLE CREEK   CLOUDY    72  54  53 S13       30.02F
BENTON HARBOR  CLEAR     73  56  54 SE8       29.96F
BIG RAPIDS     CLOUDY    59  55  85 CALM      30.01F
COLDWATER      PTCLDY    72  52  49 S6        30.03F
FREMONT        RAIN      60  57  89 SE3       30.00R
HOLLAND        CLOUDY    69  57  65 SE7       29.97F
GRAND RAPIDS   CLOUDY    67  57  70 E7        29.99F
IONIA          MOCLDY    64  56  74 E8        30.00F
KALAMAZOO      PTCLDY    73  53  49 S8        30.00F
LUDINGTON      CLOUDY    61  57  88 SE9       29.95F
MARSHALL       PTCLDY    69  55  61 SE6       30.03F
MOUNT PLEASANT LGT RAIN  60  57  91 NE5       30.03F
MUSKEGON       LGT RAIN  62  58  86 E12       29.96F FOG
SOUTH HAVEN    PTCLDY    71  55  55 SE3       29.96F
$$
MIZ016>042-250500-
NORTHERN LOWER MICHIGAN

CITY           SKY/WX    TMP DP  RH WIND       PRES   REMARKS
ALPENA         LGT RAIN  59  56  89 S3        30.09F
BEAVER ISLAND  LGT RAIN  55  54  95 SE3       30.04F
BELLAIRE       RAIN      59  56  92 CALM      30.03F
CADILLAC       RAIN      58  56  96 SE9       30.02F
CHARLEVOIX     RAIN      57  57  99 E6        30.06F
FRANKFORT      HVY RAIN  62  56  81 E6        29.98F
GAYLORD        RAIN      57  57 100 S8        30.06F FOG
GRAYLING       RAIN      57  55  94 E8        30.05F
HARBOR SPRINGS DRIZZLE   55  54  97 CALM      30.05F
HOUGHTON LAKE  LGT RAIN  57  55  93 SE9       30.06F
MANISTEE       CLOUDY    59  55  88 E10       29.96F
OSCODA         LGT RAIN  61  58  92 CALM      30.10S
PELLSTON       LGT RAIN  55  53  93 CALM      30.06F FOG
ROGERS CITY    LGT RAIN  60  56  87 S3        30.09F
TRAVERSE CITY  RAIN      59  57  93 CALM      30.01F FOG
$$
MIZ007>008-015-250500-
EASTERN UPPER MICHIGAN

CITY           SKY/WX    TMP DP  RH WIND       PRES   REMARKS
KINROSS        CLOUDY    57  52  82 CALM      30.06S
MACKINAC ISLAN LGT RAIN  54  49  85 W5        30.06S
NEWBERRY       CLOUDY    57  51  79 S9        30.04S
S. S. MARIE    CLOUDY    59  49  69 CALM      30.05S
MUNISING         N/A     60  53  77 S10       30.00S
$$
MIZ004>006-011>014-085-250500-
CENTRAL UPPER MICHIGAN

CITY           SKY/WX    TMP DP  RH WIND       PRES   REMARKS
MANISTIQUE     LGT RAIN  51  50  95 SW5       30.03S
ESCANABA       CLOUDY    54  52  94 CALM      30.01F
MENOMINEE      CLOUDY    54  52  94 E8        29.97F
SAWYER-GWINN   LGT RAIN  57  54  88 S7        30.01S
$$
MIZ001>003-009>011-084-250500-
WESTERN UPPER MICHIGAN

CITY           SKY/WX    TMP DP  RH WIND       PRES   REMARKS
IRON MOUNTAIN  LGT RAIN  56  55  97 SE6       29.98F FOG
HOUGHTON       CLOUDY    57  42  57 CALM      29.95F
COPPER HARBOR    N/A     60  41  49 SW8       29.92F
IRONWOOD       CLOUDY    57  55  94 SE6       29.92F
$$

ABBREVIATIONS USED IN REMARKS
   TC - TEMPERATURE IN CELSIUS
  WCI - WIND CHILL INDEX
   HX - HEAT INDEX
  VSB - VISIBILITY



USA.gov is the U.S. government's official web portal to all federal, state and local government web resources and services.